Location: Burleson Fire Department Station 2
(32.5391°N, 97.3075°W)
Time: 00:47:38
(UTC+00:00)

NOAA 15 - Pass Details

Date: 14 December 2025
Orbit: 793 x 810 km, 98.5° (Epoch: 20 January)

Event Time Altitude Azimuth Distance (km) Brightness Sun altitude
Rises 00:32:45 0° 150° (SSE) 3,313 7.7 -14.0°
Reaches altitude 10° 00:35:10 10° 144° (SE) 2,384 6.9 -14.5°
Maximum altitude 00:40:10 45° 73° (ENE) 1,087 4.8 -15.5°
Drops below altitude 10° 00:45:11 10° 1° (N) 2,390 6.9 -16.5°
Sets 00:47:36 0° 356° (N) 3,322 7.7 -17.0°
